Miscellaneous Local Product
Issued by NWS Hastings, NE

Home | Current Version | Previous Version | Text Only | Print | Product List | Glossary On
Versions: 1 2 3 4 5 6 7 8 9 10 11 12 13 14 15 16 17 18 19 20 21 22 23 24 25 26 27 28 29 30 31 32 33 34 35 36 37 38 39 40 41 42 43 44 45 46 47 48 49 50
000
AXUS43 KGID 310702
MISGRI

GID CWA HOURLY WEATHER ROUNDUP
NATIONAL WEATHER SERVICE HASTINGS NE
200 AM CDT SUN AUG 31 2014

NOTE: "FAIR" INDICATES FEW OR NO CLOUDS BELOW 12,000 FEET WITH NO
SIGNIFICANT WEATHER AND/OR OBSTRUCTIONS TO VISIBILITY.

...SOUTH CENTRAL NEBRASKA...

CITY           SKY/WX    TMP DP  RH WIND       PRES   REMARKS
GRAND ISLAND   CLEAR     69  63  81 S10       29.82F
HASTINGS       CLEAR     69  58  67 S8        29.83F
KEARNEY        CLEAR     68  61  77 S12       29.82F
ORD            CLEAR     69  62  78 S8        29.79F
YORK           CLEAR     68 N/A N/A S10       29.84S
AURORA         CLEAR     69  64  84 S10       29.82F
LEXINGTON      PTCLDY    72  59  63 S13G20    29.82F
HOLDREGE       CLEAR     67  60  78 CALM      29.83S
HEBRON         CLEAR     68  60  75 S5        29.83F

...NEBRASKA PANHANDLE...

CITY           SKY/WX    TMP DP  RH WIND       PRES   REMARKS
CHADRON        PTCLDY    62  53  72 W7        29.82S
ALLIANCE       CLOUDY    61  53  75 W8        29.85R
SCOTTSBLUFF    PTCLDY    59  52  77 CALM      29.87S
SIDNEY         CLOUDY    61  48  62 W5        29.89S

...WESTERN AND NORTH CENTRAL NEBRASKA...

CITY           SKY/WX    TMP DP  RH WIND       PRES   REMARKS
VALENTINE      CLOUDY    72  61  68 S13       29.74F
AINSWORTH      MOCLDY    70  61  72 SW6       29.78S
ONEILL         PTCLDY    71  65  82 S9        29.78R
BROKEN BOW     PTCLDY    69  60  73 VRB5      29.83R
IMPERIAL       MOCLDY    71  56  58 NW5       29.84F
NORTH PLATTE   MOCLDY    66  58  75 CALM      29.84S
MCCOOK         PTCLDY    71  55  56 S13       29.84R

...EASTERN NEBRASKA...

CITY           SKY/WX    TMP DP  RH WIND       PRES   REMARKS
NORFOLK        CLEAR     69  63  81 SE8       29.81S
SO SIOUX CITY  CLEAR     65  63  93 SE8       29.82F
TEKAMAH        CLEAR     66  64  93 SE5       29.83S
COLUMBUS       CLEAR     70  63  78 S10       29.83S
ALBION         CLEAR     66  62  87 SE6       29.82S
OMAHA EPPLEY   CLEAR     71  65  81 S7        29.84F
OFFUTT AFB     CLEAR     66  66 100 E6        29.84F
MILLARD        CLEAR     70  66  87 SE5       29.84S
LINCOLN        CLEAR     69  64  84 S8        29.84F
NEBRASKA CITY  CLEAR     68  68 100 S7        29.86S
BEATRICE       CLEAR     71  64  80 S8        29.85S
FALLS CITY     CLEAR     70  66  87 S7        29.86S

...NORTHERN KANSAS...

CITY           SKY/WX    TMP DP  RH WIND       PRES   REMARKS
GOODLAND       CLOUDY    68  55  63 S14G30    29.95R THUNDER
HILL CITY      PTCLDY    73  57  57 S9        29.84F
NORTON         SUNNY     73  54  49 S8G16     29.83F
PHILLIPSBURG   CLEAR     73  57  56 S6        29.83S
SMITH CENTER   PTCLDY    70  61  73 SE7       29.85R
BELOIT         PTCLDY    70  61  73 SE5       29.82F
HAYS           CLEAR     73  54  49 S15       29.85F
RUSSELL        CLEAR     73  58  59 S14       29.84F
CONCORDIA      CLEAR     72  60  66 S10       29.84F
SALINA         CLEAR     72  60  66 S10       29.85F
TOPEKA         CLEAR     71  66  84 CALM      29.88S



USA.gov is the U.S. government's official web portal to all federal, state and local government web resources and services.